STARLINK-30332, 57700

Orbit data source: Space-Track

STARLINK-30332, 57700 is a payload satellite owned by SpaceX/Seattle (US) in LEO that was launched on Sun, 27 Aug 2023 UTC via an FALCON 9 launch vehicle from the Air Force Eastern Test Range (AFETR). Payload-class satellites include a variety of spacecraft equipped with specific instruments for various scientific and technological missions. These include communications satellites like Starlink; space stations such as the ISS; scientific satellites like the Hubble; Earth observation satellites from companies like Planet Labs, Umbra, and HawkEye 360; GPS; miniature CubeSats for education and research; and military/defense satellites.

Loading next visibility...
Identifier
57700, 2023-129C
Orbit
LEO
Country
Flag of USUS
Related business
Manufacturer
SpaceX/Seattle
Mission
Operational Commercial Communications
Bus & Motor
STARLINK V2M, Unknown motor
Mass
730 kg wet, ~700 kg dry
Launch date (UTC)
2023-08-27 (3 years ago)
Launch vehicle
FALCON 9
Launch site
Air Force Eastern Test Range (AFETR)
Object type
Payload
Rocket body
Debris
Shape & HBR
Box + 2 Pan, 17.7 m
Radar Cross Section
33.884 m², Large (>1 m²)

Expand to show TLE details & history
Last TLE update: 3 days ago

TLE from 3 days ago
0 STARLINK-30332
1 57700U 23129C   26170.75326426  .00002794  00000-0  11101-3 0  9996
2 57700  42.9997 269.0033 0001606 272.2333  87.8335 15.27582776156061
Epoch: 2026-06-19T18:04Z
TLE epoch observation values (Epoch: 2026-06-19T18:04:42.032Z)
Latitude
0.00002°
Longitude
89.85047°
Altitude
482.775 km
Speed
7.626 km/s
True Right ascension
17h 56m 00s
True Declination
0° 00' 00"
Sunlit
Object was in full shadow at epoch
Visualization orbit readout
Latitude
Unknown
Longitude
Unknown
Altitude
Unknown
Speed
Unknown
Apparent Right ascension
Unknown
Apparent Declination
Unknown
Sunlit
N/A
Visualization observer readout
Local Sidereal Time
21:23:53
Azimuth
Unknown
Elevation
Unknown
Doppler factor
Unknown
Orbital elements
Apogee altitude
486.088 km
Perigee altitude
483.884 km
Semi-major axis
6,863.123 km
Eccentricity
0.00016
Inclination
42.9997°
RAAN
269.0033°
Arg. of periapsis
272.2333°
True anomaly
87.85189°
Mean anomaly
87.8335°
Eccentric anomaly
87.8427°
Mean motion
3.81734 °/min
Orbital period
94.31 mins
BSTAR
0.00011101
Loading maneuver chart data...
Computing Atmospheric mass density...
Loading historical data...
Loading historical data...
Loading historical data...
Loading historical data...
Loading historical data...
Loading historical data...
Loading historical data...

Documentation

Showing up to 5 results
|